Location: Babice
(50.3480°N, 22.9363°E)
Time: 12:43:32
(UTC+00:00)

SL-08 R/B - Pass Details

Date: 14 July 2020
Orbit: 675 x 739 km, 98.4° (Epoch: 07 August)

Event Time Altitude Azimuth Distance (km) Brightness Sun altitude
Exits shadow 01:22:18 - 173° (S) 2,978 6.1 -9.0°
Reaches altitude 10° 01:24:19 10° 176° (S) 2,166 5.4 -8.8°
Maximum altitude 01:29:02 63° 258° (WSW) 798 3.4 -8.3°
Drops below altitude 10° 01:33:53 10° 340° (NNW) 2,223 6.3 -7.8°
Sets 01:36:13 0° 343° (NNW) 3,158 7.2 -7.6°
